レオナード彗星

P/2018 L5 ( Leonard )

English version
Home page
Updated on May 20, 2019

---------------------------------------------------------------------

・ プロフィール

発見日 2018年6月14日
発見光度 18.5等
発見者 G. J. Leonard (Mount Lemmon)

・ 写真集

・ 軌道要素

Epoch 2018 May 2.0 TT = JDT 2458240.5
T 2018 May 4.45952 TT                                   MPCW
q   2.3032737            (2000.0)            P               Q
n   0.14284853     Peri.   93.62774     +0.67882267     +0.73389867
a   3.6242560      Node   219.16053     -0.68808616     +0.62417407
e   0.3644837      Incl.    2.20910     -0.25639270     +0.26795424
P   6.90
From 181 observations 2018 June 8-Dec. 14, mean residual 0".5.

・ 光度変化

        m1 = 13.5 + 5 logΔ + 10.0 log r

---------------------------------------------------------------------

軌道要素はM.P.E.C. 2019-J142に掲載されたものです。
光度グラフはComet for Windowsで作成したものです。

---------------------------------------------------------------------

Copyright(C) Seiichi Yoshida (comet@aerith.net). All rights reserved.